Location: Carrières
(48.9495°N, 2.0407°E)
Time: 21:27:27
(UTC+00:00)

deb Kosmos-2227 - Visible Passes

Search period start: 20 April 2026 00:00
Search period end: 30 April 2026 00:00
Orbit: 825 x 990 km, 71.2° (Epoch: 20 April)

Date Brightness Start Highest point End Pass type
(mag) Time Alt. Az. Time Alt. Az. Time Alt. Az.
20 Apr ? 19:28:35 10° NW 19:34:03 60° WSW 19:39:30 10° S visible
21 Apr ? 19:33:31 10° NW 19:38:47 45° WSW 19:44:01 10° S visible
22 Apr ? 19:38:33 10° NW 19:43:29 34° WSW 19:48:24 10° SSW visible
23 Apr ? 19:43:40 10° NW 19:48:08 25° WSW 19:52:36 10° SSW visible
24 Apr ? 19:48:58 10° WNW 19:52:45 19° W 19:56:32 10° SW visible
25 Apr ? 19:54:35 10° WNW 19:57:19 14° W 20:00:04 10° SW visible
